EW3570 Weather Reports


Display with metric or nautical units.
time (UTC)temp
F
wind
direction
speed
MPH
gust
MPH
rain 1hr
in
rain 24hr
in
rain mn
in
humidity
%
barometer
mb
20190819013759 65 0 0.0 1.0 0.00 0.02 0.00 79 1014.9
20190819013251 65 0 0.0 2.0 0.00 0.02 0.00 79 1014.8
20190819012739 65 0 0.0 2.0 0.00 0.02 0.00 80 1014.8
20190819012232 64 0 0.0 2.0 0.00 0.02 0.00 80 1015.2
20190819011719 64 0 0.0 4.0 0.00 0.02 0.00 80 1015.1
20190819011208 64 90 2.0 4.0 0.00 0.02 0.00 79 1015.3
20190819010701 64 315 1.0 3.0 0.00 0.02 0.00 78 1015.5
20190819010148 65 225 1.0 3.0 0.00 0.02 0.00 78 1015.3
20190819005641 65 180 0.0 2.0 0.00 0.02 0.00 78 1015.0
20190819005153 65 0 0.0 1.0 0.00 0.02 0.00 79 1015.1
20190819004618 64 0 0.0 2.0 0.00 0.02 0.00 79 1014.9
20190819004109 64 0 0.0 4.0 0.00 0.02 0.00 80 1015.0
20190819003557 64 270 2.0 4.0 0.00 0.02 0.00 80 1015.1
20190819003051 64 180 2.0 3.0 0.00 0.02 0.00 80 1015.1
20190819002601 64 0 0.0 5.0 0.00 0.02 0.00 81 1015.1
20190819002027 63 180 1.0 6.0 0.00 0.02 0.00 81 1015.0
20190819001519 63 180 3.0 6.0 0.00 0.02 0.00 80 1014.7
20190819001006 64 68 3.0 6.0 0.00 0.02 0.00 79 1014.7
20190819000500 64 135 2.0 4.0 0.00 0.02 0.00 78 1014.7
20190818235947 64 135 2.0 6.0 0.00 0.02 0.00 78 1014.6
20190818235436 64 90 2.0 6.0 0.00 0.02 0.00 77 1014.5
20190818234928 65 180 2.0 4.0 0.00 0.02 0.00 77 1014.2
20190818234416 65 0 2.0 4.0 0.00 0.02 0.00 76 1014.6
20190818233924 65 45 0.0 3.0 0.00 0.02 0.00 75 1014.6
20190818233355 65 270 2.0 2.0 0.00 0.02 0.00 75 1014.4
20190818232848 65 0 0.0 4.0 0.00 0.02 0.00 75 1014.4
20190818232348 65 270 0.0 4.0 0.00 0.02 0.00 75 1014.6
20190818231825 65 180 2.0 3.0 0.00 0.02 0.00 76 1014.6
20190818231319 65 0 2.0 7.0 0.00 0.02 0.00 76 1014.7
20190818230805 65 135 1.0 7.0 0.00 0.02 0.00 77 1015.0
20190818230254 65 225 2.0 6.0 0.00 0.02 0.00 75 1015.2
20190818225746 66 45 2.0 2.0 0.00 0.02 0.00 75 1014.6
20190818225234 66 0 1.0 2.0 0.00 0.02 0.00 75 1014.6
20190818224727 66 0 0.0 2.0 0.02 0.02 0.00 75 1014.4
20190818224237 66 45 0.0 4.0 0.02 0.02 0.00 75 1014.5
20190818223704 65 45 2.0 5.0 0.02 0.02 0.00 76 1014.2
20190818223156 65 225 2.0 6.0 0.02 0.02 0.00 77 1013.9
20190818222643 65 225 4.0 9.0 0.02 0.02 0.00 76 1013.6
20190818222138 65 90 7.0 9.0 0.02 0.02 0.00 75 1013.6
20190818221623 67 90 7.0 9.0 0.02 0.02 0.00 73 1013.3
20190818221113 68 0 0.0 1.0 0.02 0.02 0.00 73 1012.7
20190818220605 67 0 0.0 1.0 0.02 0.02 0.00 74 1012.4
20190818220053 67 0 0.0 4.0 0.02 0.02 0.00 74 1012.3
20190818215547 67 0 0.0 4.0 0.02 0.02 0.02 74 1012.1
20190818215032 68 180 2.0 2.0 0.01 0.01 0.01 73 1012.0
20190818214522 69 180 0.0 1.0 0.00 0.00 0.00 72 1012.0
20190818214015 69 0 0.0 1.0 0.00 0.00 0.00 71 1012.0
20190818213502 69 0 0.0 1.0 0.00 0.00 0.00 71 1011.8
20190818212957 69 0 0.0 1.0 0.00 0.00 0.00 68 1011.5
20190818212442 69 0 0.0 7.0 0.00 0.00 0.00 67 1012.0
20190818211931 69 90 0.0 8.0 0.00 0.00 0.00 68 1012.0
20190818211424 70 270 6.0 8.0 0.00 0.00 0.00 69 1012.2
20190818210911 72 180 2.0 4.0 0.00 0.00 0.00 66 1012.2
20190818210407 73 45 0.0 3.0 0.00 0.00 0.00 62 1011.2
20190818205916 73 315 0.0 3.0 0.00 0.00 0.00 60 1010.9
20190818205341 73 180 0.0 2.0 0.00 0.00 0.00 57 1010.4
20190818204832 73 180 0.0 3.0 0.00 0.00 0.00 57 1010.0
20190818204321 73 225 2.0 3.0 0.00 0.00 0.00 57 1009.9
20190818203815 73 68 2.0 3.0 0.00 0.00 0.00 56 1009.9
20190818203300 73 90 0.0 2.0 0.00 0.00 0.00 56 1009.7
20190818202751 74 225 1.0 2.0 0.00 0.00 0.00 56 1009.6
20190818202242 74 90 0.0 2.0 0.00 0.00 0.00 55 1009.7
20190818201730 74 0 0.0 0.0 0.00 0.00 0.00 55 1009.4
20190818201222 74 0 0.0 2.0 0.00 0.00 0.00 56 1009.5
20190818200722 74 315 0.0 2.0 0.00 0.00 0.00 56 1009.5
20190818200159 74 315 2.0 2.0 0.00 0.00 0.00 56 1009.5
20190818195652 74 225 2.0 2.0 0.00 0.00 0.00 55 1009.8
20190818195139 74 315 0.0 0.0 0.00 0.00 0.00 53 1009.9
20190818194635 75 0 0.0 0.0 0.00 0.00 0.00 53 1009.8
20190818194118 75 0 0.0 0.0 0.00 0.00 0.00 53 1009.7
20190818193609 75 0 0.0 0.0 0.00 0.00 0.00 52 1009.6
20190818193101 75 0 0.0 0.0 0.00 0.00 0.00 53 1009.4
20190818192548 75 315 0.0 1.0 0.00 0.00 0.00 52 1009.1
20190818192042 75 0 0.0 1.0 0.00 0.00 0.00 52 1009.2
20190818191528 75 0 0.0 1.0 0.00 0.00 0.00 52 1009.1
20190818191018 76 315 0.0 2.0 0.00 0.00 0.00 51 1009.0
20190818190534 76 180 0.0 2.0 0.00 0.00 0.00 51 1009.0
20190818185957 76 0 0.0 1.0 0.00 0.00 0.00 51 1009.0
20190818185450 76 0 0.0 1.0 0.00 0.00 0.00 51 1009.0
20190818184948 76 0 0.0 3.0 0.00 0.00 0.00 50 1009.1
20190818184426 76 0 0.0 3.0 0.00 0.00 0.00 50 1008.8
20190818183919 76 135 2.0 3.0 0.00 0.00 0.00 50 1008.7
20190818183406 77 315 0.0 4.0 0.00 0.00 0.00 50 1008.6
20190818182900 77 0 0.0 4.0 0.00 0.00 0.00 50 1008.9
20190818182346 77 180 0.0 3.0 0.00 0.00 0.00 50 1008.5
20190818181836 77 225 0.0 4.0 0.00 0.00 0.00 49 1008.8
20190818181328 77 225 3.0 4.0 0.00 0.00 0.00 49 1008.5
20190818180815 78 225 3.0 4.0 0.00 0.00 0.00 48 1008.6
20190818180310 78 225 0.0 2.0 0.00 0.00 0.00 48 1008.6
20190818175755 78 180 0.0 1.0 0.00 0.00 0.00 48 1008.6
20190818175245 78 180 0.0 2.0 0.00 0.00 0.00 47 1008.5
20190818174738 78 0 0.0 2.0 0.00 0.00 0.00 47 1008.7
20190818174225 78 338 1.0 2.0 0.00 0.00 0.00 43 1008.6
20190818173718 79 0 0.0 2.0 0.00 0.00 0.00 42 1008.6
20190818173205 79 270 1.0 2.0 0.00 0.00 0.00 42 1008.6
20190818172655 79 135 0.0 3.0 0.00 0.00 0.00 42 1008.5
20190818172211 80 315 0.0 3.0 0.00 0.00 0.00 41 1008.6
20190818171634 80 315 0.0 4.0 0.00 0.00 0.00 41 1008.4
20190818171130 80 0 0.0 4.0 0.00 0.00 0.00 41 1008.6
20190818170626 81 45 2.0 4.0 0.00 0.00 0.00 41 1008.5
20190818170104 81 315 3.0 4.0 0.00 0.00 0.00 40 1008.5
20190818165556 81 270 0.0 4.0 0.00 0.00 0.00 40 1008.7
20190818165042 82 270 3.0 4.0 0.00 0.00 0.00 40 1008.6
20190818164539 82 225 2.0 8.0 0.00 0.00 0.00 40 1008.3
20190818164022 82 315 1.0 8.0 0.00 0.00 0.00 40 1008.3
20190818163514 82 90 1.0 5.0 0.00 0.00 0.00 40 1008.5
20190818163006 82 0 1.0 8.0 0.00 0.00 0.00 40 1008.4
20190818162452 82 180 3.0 8.0 0.00 0.00 0.00 40 1008.4
20190818161947 83 45 4.0 10.0 0.00 0.00 0.00 39 1008.3
20190818161432 83 90 7.0 10.0 0.00 0.00 0.00 39 1008.3
20190818160922 83 90 1.0 8.0 0.00 0.00 0.00 39 1008.2
20190818160416 83 135 5.0 9.0 0.00 0.00 0.00 37 1008.2
20190818155901 84 68 5.0 9.0 0.00 0.00 0.00 37 1008.2
20190818155358 84 225 4.0 8.0 0.00 0.00 0.00 37 1008.0
20190818154841 84 45 2.0 6.0 0.00 0.00 0.00 38 1008.0
20190818154331 84 225 4.0 8.0 0.00 0.00 0.00 38 1008.0
20190818153835 85 270 4.0 8.0 0.00 0.00 0.00 38 1008.0
20190818153310 85 338 2.0 11.0 0.00 0.00 0.00 38 1007.8
20190818152804 85 135 4.0 11.0 0.00 0.00 0.00 37 1007.7
20190818152314 85 135 4.0 11.0 0.00 0.00 0.00 38 1007.7
20190818151740 85 45 4.0 11.0 0.00 0.00 0.00 37 1007.7
20190818151256 85 180 8.0 11.0 0.00 0.00 0.00 37 1007.6
20190818150719 85 90 6.0 11.0 0.00 0.00 0.00 36 1007.6
20190818150213 85 338 4.0 11.0 0.00 0.00 0.00 35 1007.5
20190818145659 85 180 4.0 11.0 0.00 0.00 0.00 34 1007.5
20190818145148 85 180 8.0 11.0 0.00 0.00 0.00 33 1007.6
20190818144641 85 180 4.0 8.0 0.00 0.00 0.00 33 1007.6
20190818144128 85 180 4.0 10.0 0.00 0.00 0.00 33 1007.6
20190818143622 85 225 4.0 10.0 0.00 0.00 0.00 33 1007.6
20190818143119 85 225 8.0 9.0 0.00 0.00 0.00 33 1007.7
20190818142557 85 158 2.0 7.0 0.00 0.00 0.00 34 1007.8
20190818142049 85 135 3.0 9.0 0.00 0.00 0.00 35 1007.8
20190818141537 85 315 4.0 9.0 0.00 0.00 0.00 35 1008.0
20190818141031 85 90 4.0 7.0 0.00 0.00 0.00 35 1007.8
20190818140542 85 90 4.0 9.0 0.00 0.00 0.00 34 1007.9
20190818140007 85 90 4.0 9.0 0.00 0.00 0.00 34 1007.9
20190818135512 85 135 5.0 9.0 0.00 0.00 0.00 34 1008.0
20190818134947 85 180 3.0 8.0 0.00 0.00 0.00 34 1007.8
20190818134441 85 180 4.0 10.0 0.00 0.00 0.00 33 1007.9
20190818133927 85 45 5.0 11.0 0.00 0.00 0.00 32 1007.9
20190818133417 85 225 8.0 11.0 0.00 0.00 0.00 32 1008.1
20190818132932 85 180 4.0 6.0 0.00 0.00 0.00 33 1008.2
20190818132356 84 135 4.0 6.0 0.00 0.00 0.00 33 1007.9
20190818131850 84 225 2.0 5.0 0.00 0.00 0.00 33 1008.1
20190818131401 84 0 3.0 6.0 0.00 0.00 0.00 33 1008.1
20190818130825 84 180 2.0 8.0 0.00 0.00 0.00 35 1008.2
20190818130342 83 315 2.0 8.0 0.00 0.00 0.00 35 1008.2
20190818125806 83 0 2.0 7.0 0.00 0.00 0.00 37 1008.3
20190818125259 83 315 3.0 7.0 0.00 0.00 0.00 36 1008.3
20190818124809 83 90 3.0 6.0 0.00 0.00 0.00 37 1008.2
20190818124235 83 315 3.0 8.0 0.00 0.00 0.00 37 1008.3
20190818123737 83 270 5.0 10.0 0.00 0.00 0.00 37 1008.2
20190818123213 83 180 4.0 10.0 0.00 0.00 0.00 37 1008.4
20190818122709 83 248 6.0 9.0 0.00 0.00 0.00 39 1008.4
20190818122156 83 180 4.0 6.0 0.00 0.00 0.00 38 1008.3
20190818121643 83 180 3.0 6.0 0.00 0.00 0.00 36 1008.4
20190818121135 83 135 4.0 6.0 0.00 0.00 0.00 39 1008.4
20190818120623 82 45 4.0 6.0 0.00 0.00 0.00 40 1008.3
20190818120119 82 45 4.0 6.0 0.00 0.00 0.00 40 1008.4
20190818115603 82 0 2.0 6.0 0.00 0.00 0.00 40 1008.4
20190818115052 82 315 4.0 6.0 0.00 0.00 0.00 40 1008.6
20190818114544 82 315 0.0 4.0 0.00 0.00 0.00 40 1008.6
20190818114032 82 315 0.0 5.0 0.00 0.00 0.00 40 1008.8
20190818113526 82 90 4.0 5.0 0.00 0.00 0.00 40 1008.9
20190818113012 82 315 0.0 4.0 0.00 0.00 0.00 40 1008.8
20190818112503 81 315 3.0 5.0 0.00 0.00 0.00 40 1008.9
20190818112018 81 315 4.0 5.0 0.00 0.00 0.00 40 1008.8
20190818111441 81 180 2.0 8.0 0.00 0.00 0.00 40 1009.0
20190818110935 81 315 2.0 8.0 0.00 0.00 0.00 40 1009.0
20190818110433 81 225 5.0 8.0 0.00 0.00 0.00 39 1009.0
20190818105911 80 180 3.0 9.0 0.00 0.00 0.00 40 1009.1
20190818105414 80 225 2.0 9.0 0.00 0.00 0.00 41 1009.0
20190818104850 80 0 2.0 7.0 0.00 0.00 0.00 41 1009.2
20190818104346 80 315 3.0 7.0 0.00 0.00 0.00 42 1009.4
20190818103832 79 180 4.0 7.0 0.00 0.00 0.00 42 1009.4
20190818103320 79 135 3.0 7.0 0.00 0.00 0.00 42 1009.4
20190818102812 79 315 3.0 6.0 0.00 0.00 0.00 42 1009.5
20190818102300 79 90 4.0 6.0 0.00 0.00 0.00 42 1009.4
20190818101754 79 270 3.0 6.0 0.00 0.00 0.00 43 1009.4
20190818101240 79 135 2.0 4.0 0.00 0.00 0.00 43 1009.5
20190818100730 79 0 0.0 4.0 0.00 0.00 0.00 43 1009.5
20190818100222 79 225 3.0 4.0 0.00 0.00 0.00 44 1009.5
20190818095709 78 315 0.0 4.0 0.00 0.00 0.00 45 1009.6
20190818095203 78 315 1.0 4.0 0.00 0.00 0.00 50 1009.5
20190818094712 78 180 3.0 7.0 0.00 0.00 0.00 49 1009.6
20190818094138 78 225 4.0 7.0 0.00 0.00 0.00 50 1009.7
20190818093631 77 180 2.0 6.0 0.00 0.00 0.00 50 1009.6
20190818093118 77 135 2.0 6.0 0.00 0.00 0.00 50 1009.7
20190818092611 77 180 2.0 5.0 0.00 0.00 0.00 50 1009.7
20190818092109 77 0 0.0 5.0 0.00 0.00 0.00 50 1009.7
20190818091548 76 180 2.0 5.0 0.00 0.00 0.00 50 1009.8
20190818091040 76 270 3.0 5.0 0.00 0.00 0.00 50 1009.8
20190818090527 76 225 3.0 5.0 0.00 0.00 0.00 50 1009.8
20190818090022 76 0 2.0 5.0 0.00 0.00 0.00 51 1010.0
20190818085507 76 270 0.0 2.0 0.00 0.00 0.00 53 1010.0
20190818084957 75 0 0.0 4.0 0.00 0.00 0.00 54 1009.9
20190818084450 75 0 3.0 4.0 0.00 0.00 0.00 55 1009.9
20190818082916 73 0 0.0 1.0 0.00 0.00 0.00 57 1010.0
20190818082406 72 225 0.0 1.0 0.00 0.00 0.00 59 1010.2
20190818081859 72 0 0.0 1.0 0.00 0.00 0.00 58 1010.2
20190818081346 72 0 0.0 1.0 0.00 0.00 0.00 60 1010.4
20190818080840 71 0 0.0 1.0 0.00 0.00 0.00 60 1010.3
20190818080333 70 0 0.0 2.0 0.00 0.00 0.00 61 1010.4
20190818075822 70 0 1.0 2.0 0.00 0.00 0.00 62 1010.5
20190818075331 70 0 0.0 1.0 0.00 0.00 0.00 62 1010.4
20190818074755 69 0 0.0 1.0 0.00 0.00 0.00 64 1010.6
20190818074250 69 315 0.0 1.0 0.00 0.00 0.00 67 1010.6
20190818073801 69 45 0.0 1.0 0.00 0.00 0.00 68 1010.6
20190818073225 68 315 0.0 1.0 0.00 0.00 0.00 69 1010.5
20190818072717 68 315 0.0 1.0 0.00 0.00 0.00 69 1010.5
20190818072205 68 0 0.0 1.0 0.00 0.00 0.00 68 1010.6
20190818071658 67 0 0.0 1.0 0.00 0.00 0.00 69 1010.5
20190818071208 67 0 0.0 1.0 0.00 0.00 0.00 69 1010.5
20190818070634 67 0 0.0 1.0 0.00 0.00 0.00 69 1010.4
20190818070126 66 0 0.0 1.0 0.00 0.00 0.00 70 1010.5
20190818065614 66 0 0.0 1.0 0.00 0.00 0.00 70 1010.6
20190818065111 65 0 0.0 1.0 0.00 0.00 0.00 71 1010.7
20190818064553 64 315 0.0 1.0 0.00 0.00 0.00 70 1010.6
20190818064043 64 0 0.0 1.0 0.00 0.00 0.00 70 1010.6
20190818063535 64 315 0.0 1.0 0.00 0.00 0.00 71 1010.6
20190818063023 64 0 0.0 1.0 0.00 0.00 0.00 70 1010.5
20190818062519 64 315 0.0 1.0 0.00 0.00 0.00 71 1010.5
20190818062003 64 0 0.0 1.0 0.00 0.00 0.00 71 1010.8
20190818061453 63 315 0.0 1.0 0.00 0.00 0.00 71 1010.8
20190818060944 63 315 0.0 1.0 0.00 0.00 0.00 71 1010.9
20190818060432 63 0 0.0 1.0 0.00 0.00 0.00 72 1010.6
20190818055927 63 0 0.0 1.0 0.00 0.00 0.00 72 1010.6
20190818055412 62 315 0.0 1.0 0.00 0.00 0.00 72 1010.4
20190818054902 62 315 0.0 1.0 0.00 0.00 0.00 72 1010.1
20190818054354 62 0 0.0 1.0 0.00 0.00 0.00 73 1010.3
20190818053842 62 0 0.0 1.0 0.00 0.00 0.00 74 1010.4
20190818053337 62 45 0.0 1.0 0.00 0.00 0.00 74 1010.1
20190818052846 61 0 0.0 0.0 0.00 0.00 0.00 74 1010.4
20190818052311 61 0 0.0 0.0 0.00 0.00 0.00 74 1010.3
20190818051804 61 0 0.0 0.0 0.00 0.00 0.00 74 1010.5
20190818051251 61 0 0.0 0.0 0.00 0.00 0.00 74 1010.3
20190818050749 61 0 0.0 0.0 0.00 0.00 0.00 75 1010.6
20190818050230 60 0 0.0 0.0 0.00 0.00 0.00 75 1010.6
20190818045723 60 0 0.0 0.0 0.00 0.00 0.00 75 1010.8
20190818045225 60 0 0.0 0.0 0.00 0.00 0.00 75 1010.8
20190818044700 60 0 0.0 0.0 0.00 0.00 0.00 75 1010.9
20190818044155 60 0 0.0 0.0 0.00 0.00 0.00 79 1010.9
20190818043708 60 0 0.0 0.0 0.00 0.00 0.00 75 1011.1
20190818043129 60 0 0.0 0.0 0.00 0.00 0.00 75 1010.9
20190818042621 60 0 0.0 0.0 0.00 0.00 0.00 75 1011.0
20190818042109 60 0 0.0 1.0 0.00 0.00 0.00 79 1010.9
20190818041602 60 0 0.0 1.0 0.00 0.00 0.00 74 1011.0
20190818041049 60 0 0.0 0.0 0.00 0.00 0.00 74 1010.9
20190818040538 61 0 0.0 0.0 0.00 0.00 0.00 74 1010.9
20190818040056 61 0 0.0 0.0 0.00 0.00 0.00 74 1010.9
20190818035518 61 0 0.0 0.0 0.00 0.00 0.00 74 1010.8
20190818035013 61 0 0.0 1.0 0.00 0.00 0.00 74 1010.9
20190818034508 61 0 0.0 1.0 0.00 0.00 0.00 74 1011.0
20190818033947 61 0 0.0 0.0 0.00 0.00 0.00 74 1011.0
20190818033440 61 0 0.0 0.0 0.00 0.00 0.00 74 1010.8
20190818032927 61 0 0.0 0.0 0.00 0.00 0.00 74 1010.9
20190818032420 61 0 0.0 1.0 0.00 0.00 0.00 74 1010.8
20190818031907 61 0 0.0 1.0 0.00 0.00 0.00 74 1010.8
20190818031357 61 0 0.0 0.0 0.00 0.00 0.00 74 1010.8
20190818030849 61 0 0.0 0.0 0.00 0.00 0.00 74 1010.9
20190818030337 61 0 0.0 0.0 0.00 0.00 0.00 74 1010.8
20190818025830 61 0 0.0 1.0 0.00 0.00 0.00 74 1010.8
20190818025327 62 0 0.0 1.0 0.00 0.00 0.00 74 1010.9
20190818024806 62 0 0.0 0.0 0.00 0.00 0.00 74 1010.8
20190818024259 62 0 0.0 0.0 0.00 0.00 0.00 74 1010.9
20190818023745 62 0 0.0 0.0 0.00 0.00 0.00 74 1010.9
20190818023240 62 0 0.0 0.0 0.00 0.00 0.00 74 1010.9
20190818022726 62 0 0.0 0.0 0.00 0.00 0.00 74 1011.1
20190818022215 61 0 0.0 0.0 0.00 0.00 0.00 74 1010.9
20190818021732 62 0 0.0 0.0 0.00 0.00 0.00 74 1011.0
20190818021155 62 0 0.0 0.0 0.00 0.00 0.00 74 1011.0
20190818020650 62 315 0.0 0.0 0.00 0.00 0.00 74 1011.0
20190818020159 62 315 0.0 0.0 0.00 0.00 0.00 74 1011.1
20190818015625 62 315 0.0 0.0 0.00 0.00 0.00 74 1011.0
20190818015141 62 0 0.0 0.0 0.00 0.00 0.00 74 1011.1
20190818014604 62 0 0.0 0.0 0.00 0.00 0.00 74 1011.1